CZ-6A DEB, 54474

Orbit data source: Space-Track

CZ-6A DEB, 54474 is space debris in SSO originally from a launch on Fri, 11 Nov 2022 UTC launched from the Taiyaun Space Center, China (TSC). Debris objects in space refer to the collection of defunct objects orbiting the Earth. Examples of debris include non-operational satellites, rocket bodies, and fragments generated from explosions, collisions, or faulty payload assembly.

Loading next visibility...
Identifier
54474, 2022-151HA
Orbit
SSO
Country
Flag of CNCN / PRC
Related business
Manufacturer
SAST
Mission
Spacecraft
Bus & Motor
Unknown
Mass
Unknown
Launch date (UTC)
2022-11-11 (4 years ago)
Launch vehicle
Unknown
Launch site
Taiyaun Space Center, China (TSC)
Object type
Payload
Rocket body
Debris
Shape & HBR
Unknown shape, 0.1 m
Radar Cross Section
Medium (>0.1 m² and <1 m²)

Expand to show TLE details & history
Last TLE update: 2 days ago

TLE from 2 days ago
0 CZ-6A DEB
1 54474U 22151HA  26171.37786975  .00000642  00000-0  50324-3 0  9993
2 54474  98.9229 134.2283 0140736  91.9533 269.7751 13.90924292182569
Epoch: 2026-06-20T09:04Z
TLE epoch observation values (Epoch: 2026-06-20T09:04:07.946Z)
Latitude
0.00002°
Longitude
89.60183°
Altitude
930.112 km
Speed
7.386 km/s
True Right ascension
08h 56m 54s
True Declination
0° 00' 00"
Sunlit
Object was in daylight at epoch
Visualization orbit readout
Latitude
Unknown
Longitude
Unknown
Altitude
Unknown
Speed
Unknown
Apparent Right ascension
Unknown
Apparent Declination
Unknown
Sunlit
N/A
Visualization observer readout
Local Sidereal Time
21:32:39
Azimuth
Unknown
Elevation
Unknown
Doppler factor
Unknown
Orbital elements
Apogee altitude
1,025.348 km
Perigee altitude
819.853 km
Semi-major axis
7,300.737 km
Eccentricity
0.01407
Inclination
98.9229°
RAAN
134.2283°
Arg. of periapsis
91.9533°
True anomaly
268.16272°
Mean anomaly
269.7751°
Eccentric anomaly
268.96887°
Mean motion
3.47931 °/min
Orbital period
103.47 mins
BSTAR
0.00050324
Loading maneuver chart data...
Computing Atmospheric mass density...
Loading historical data...
Loading historical data...
Loading historical data...
Loading historical data...
Loading historical data...
Loading historical data...
Loading historical data...

Documentation

Showing up to 5 results
|